ATS 1 1 02608U 66110A 12136.17492978 .00000049 00000-0 10000-3 0 3070 2 02608 6.1168 306.0744 0006519 166.4847 193.4035 1.00333171 83174 ATS 3 1 03029U 67111A 12134.51554294 -.00000124 00000-0 10000-3 0 9516 2 03029 7.8635 312.0197 0018748 79.2974 280.8165 1.00272419163022 ORIZURU (DEBUT) 1 20479U 90013B 12136.83927447 .00000099 00000-0 30390-3 0 2272 2 20479 99.0693 234.7903 0538549 274.6338 79.3475 12.83726561 43514 SURFSAT 1 23711U 95059B 12136.87953306 -.00000145 00000-0 -19777-3 0 869 2 23711 100.3686 126.0492 0367900 213.9316 143.7765 13.12602469791985 MAQSAT H 1 25023U 97066A 12135.67702973 -.00000019 00000-0 11368-2 0 1032 2 25023 7.8400 338.0432 6511596 246.4386 34.8886 3.09576401164274 MAQSAT B 1 25024U 97066B 12135.69715091 -.00000218 00000-0 -11765-4 0 1305 2 25024 7.8581 335.2762 6527944 251.2919 31.0952 3.08777659164090 TEAMSAT 1 25025U 97066C 12135.21783564 -.00000332 00000-0 -85001-3 0 1191 2 25025 7.8753 352.9545 6524334 216.4291 73.1057 3.07918387163617 OPAL (OO-38) 1 26063U 00004C 12136.52292331 .00000130 00000-0 64436-4 0 3952 2 26063 100.2296 132.2816 0036967 146.4139 213.9389 14.36079834644555 FALCONSAT 1 26064U 00004D 12137.17848134 .00000112 00000-0 58976-4 0 3551 2 26064 100.2280 130.3401 0038058 153.6155 206.6972 14.35608865644467 PICOSAT 1 & 2 [TETHERED] 1 26080U 00004H 12135.99428916 .00000424 00000-0 14961-3 0 8555 2 26080 100.2191 164.8373 0032918 74.8262 285.6573 14.40989062644504 PICOSAT 3 1 26091U 00004J 12137.14815032 .00000912 00000-0 27930-3 0 4979 2 26091 100.2061 183.5984 0031506 19.6326 340.6063 14.44620164644952 PICOSAT 4 1 26092U 00004K 12136.02904992 .00000552 00000-0 18877-3 0 3148 2 26092 100.2172 157.5948 0035496 69.8281 290.6714 14.41040429643724 PICOSAT 5 1 26093U 00004L 12136.80058197 .00000988 00000-0 29065-3 0 2280 2 26093 100.1953 192.8942 0031884 355.2216 4.8644 14.46338392645705 PICOSAT 6 1 26094U 00004M 12136.02049714 .00000500 00000-0 17513-3 0 3444 2 26094 100.2224 155.0223 0035601 84.5980 275.9271 14.40300297643153 SNAP 1 1 26386U 00033C 12136.82579037 .00000638 00000-0 12566-3 0 6116 2 26386 98.2412 196.2863 0012675 98.0781 262.1855 14.65870212634932 PICOSAT 9 1 26930U 01043B 12136.51172968 .00000037 00000-0 46238-4 0 190 2 26930 67.0007 175.0574 0008836 299.1537 60.8654 14.30196411554780 PROBA-1 1 26958U 01049B 12137.18780669 .00001510 00000-0 14951-3 0 9353 2 26958 97.4767 167.4703 0081575 69.5183 291.4782 14.90791697574268 BIRD 2 1 26959U 01049C 12137.24285378 .00002820 00000-0 14530-3 0 7310 2 26959 97.9026 334.8044 0015205 36.1023 74.5823 15.17197342583016 CUTE-1 (CO-55) 1 27844U 03031E 12135.54659447 .00000239 00000-0 13058-3 0 3738 2 27844 98.7027 144.4147 0009616 326.0483 34.0090 14.21011331460118 CANX-1 1 27847U 03031H 12136.01625928 .00000159 00000-0 93055-4 0 2872 2 27847 98.6912 145.3090 0008344 301.3734 58.6611 14.21249472460246 CUBESAT XI-IV (CO-57) 1 27848U 03031J 12135.68522316 .00000200 00000-0 11293-3 0 3244 2 27848 98.7115 143.8708 0009570 332.0969 27.9697 14.20764339460072 NAXING 1 1 28221U 04012B 12136.52067741 .00000931 00000-0 10420-3 0 1891 2 28221 97.4707 124.6839 0010090 268.2294 91.7771 14.89064522438465 ST5-A 1 28980U 06008A 12136.68252732 .00017868 00000-0 97150-3 0 9321 2 28980 105.6664 163.0611 2276636 32.6576 339.6628 10.78231472238472 ST5-B 1 28981U 06008B 12136.81055640 .00017590 22213-5 52696-3 0 409 2 28981 105.4835 217.0934 2164788 314.6334 29.6877 11.10344738241448 ST5-C 1 28982U 06008C 12137.18438438 .00018884 19927-5 65855-3 0 621 2 28982 105.5324 201.6222 2205218 340.8127 12.1145 10.99811877240507 GENESIS 1 1 29252U 06029A 12136.20851013 .00001906 00000-0 13932-3 0 6130 2 29252 64.5085 191.1752 0051100 245.8979 113.6787 15.05967154320794 FALCONSAT-3 1 30776U 07006E 12137.26623463 .00003951 00000-0 25884-3 0 3477 2 30776 35.4310 111.7852 0001125 88.7362 271.3484 15.07327847285434 GENESIS 2 1 31789U 07028A 12137.27304543 .00002073 00000-0 15208-3 0 3611 2 31789 64.5094 220.6121 0051441 295.6070 63.9736 15.05535209268135 APRIZESAT 4 1 35684U 09041D 12136.76090495 .00000362 00000-0 58596-4 0 8798 2 35684 98.0641 47.7369 0048865 322.1983 37.5805 14.76664978150632 APRIZESAT 3 1 35686U 09041F 12136.70633657 .00000900 00000-0 11121-3 0 8887 2 35686 98.0894 59.2633 0077337 293.3860 65.9295 14.83441280151293 PROBA-2 1 36037U 09059B 12136.99268652 -.00000045 00000-0 00000+0 0 8226 2 36037 98.3048 327.6227 0012475 292.9297 67.0628 14.52221069134369 PRISMA (MANGO) 1 36599U 10028B 12136.88753308 .00000314 00000-0 10958-3 0 7406 2 36599 98.3029 312.7442 0042339 239.5257 226.7943 14.41185332100851 PRISMA (TANGO) 1 36827U 10028F 12136.88753308 .00000334 00000-0 11557-3 0 3459 2 36827 98.3027 312.7442 0042342 239.5189 226.8014 14.41185303 92624 APRIZESAT 5 1 37792U 11044E 12137.11310504 .00000522 00000-0 88247-4 0 8022 2 37792 98.2374 219.8421 0060690 206.7807 153.0263 14.72636842 40143 APRIZESAT 6 1 37793U 11044F 12137.13989220 .00000551 00000-0 99200-4 0 8159 2 37793 98.2359 218.6046 0048480 207.3487 152.5168 14.69923365 40076 ALMASAT-1 1 38078U 12006B 12137.09565306 .00014130 00000-0 39092-3 0 2126 2 38078 69.4980 29.9069 0763425 288.7929 63.1857 14.08423654 13035